Location: Croydon
(51.3762°N, 0.0982°W)
Time: 11:14:00
(UTC+00:00)

KKS-1 - Pass Details

Date: 26 October 2019
Orbit: 636 x 651 km, 98.3° (Epoch: 17 November)

Event Time Altitude Azimuth Distance (km) Brightness Sun altitude
Rises 06:03:08 0° 121° (ESE) 2,957 ? -16.0°
Reaches altitude 10° 06:05:49 10° 104° (ESE) 2,049 ? -15.6°
Maximum altitude 06:09:01 20° 58° (ENE) 1,508 ? -15.1°
Drops below altitude 10° 06:12:13 10° 12° (NNE) 2,053 ? -14.6°
Sets 06:14:54 0° 356° (N) 2,964 ? -14.2°
